Flag for Japan Weather past 2 weeks in Suzuka, Japan

Now
60 °F

Cool.


Feels Like: 60 °F
Forecast: 58 / 65 °F
Wind: 7 mph from Northeast

Location: Tsu

Current Time: Apr 19, 2015 at 2:33:37 PM

Latest Report: Apr 19, 2015 at 1:00 PM


Visibility: N/A

Pressure: 30.03 "Hg

Humidity: 64%

Dew point: 48 °F

Location of SuzukaLocation

Historic Weather in Suzuka — Graph

°F

Suzuka temperature yesterday

Maximum temperature yesterday: 66 °F (at 5:00 PM)
Minimum temperature yesterday: 45 °F (at 6:00 AM)
Average temperature yesterday: 55 °F

Past Weeks' High & Low Weather Summary

 TemperatureHumidityPressure
High66 °F (Apr 18, 5:00 PM)98% (Apr 15, 2:00 AM)30.40 "Hg (Apr 15, 2:00 AM)
Low42 °F (Apr 8, 6:00 AM)30% (Apr 17, 4:00 PM)29.65 "Hg (Apr 15, 12:00 PM)
Average55 °F75%30.06 "Hg
* Reported Apr 4 1:00 PM — Apr 19 1:00 PM, Suzuka, Weather by CustomWeather, © 2015

Note: Actual official high and low records may vary slightly from our data, if they occured in-between our weather recording intervals... More about our weather records

Advertising

Suzuka weather history for previous 24 hours

 ConditionsComfort  
Time TempWeatherWind HumidityBarometerVisibility
1:00 PM
Sun, Apr 19
60 °FCool.7 mph64%30.03 "HgN/A
12:00 PM59 °FCool.5 mph62%30.06 "HgN/A
11:00 AM58 °FCool.5 mph69%30.07 "HgN/A
10:00 AM56 °FCool.2 mph73%30.08 "HgN/A
9:00 AM57 °FLight rain. Overcast.2 mph65%30.09 "Hg12 mi
8:00 AM55 °FCool.2 mph77%30.09 "HgN/A
7:00 AM54 °FCool.2 mph78%30.09 "HgN/A
6:00 AM54 °FCool.1 mph70%30.07 "HgN/A
5:00 AM54 °FCool.3 mph69%30.07 "HgN/A
4:00 AM53 °FCool.5 mph72%30.07 "HgN/A
3:00 AM53 °FCool.5 mph69%30.07 "HgN/A
2:00 AM54 °FCool.5 mph65%30.09 "HgN/A
1:00 AM55 °FCool.3 mph62%30.10 "HgN/A
12:00 AM55 °FCool.5 mph59%30.10 "HgN/A
11:00 PM
Sat, Apr 18
56 °FRefreshingly cool.3 mph58%30.09 "HgN/A
10:00 PM56 °FRefreshingly cool.7 mph60%30.09 "HgN/A
9:00 PM58 °FOvercast.3 mph54%30.09 "Hg12 mi
8:00 PM59 °FRefreshingly cool.6 mph50%30.06 "HgN/A
7:00 PM62 °FRefreshingly cool.2 mph50%30.05 "HgN/A
6:00 PM64 °FMild.2 mph48%30.03 "HgN/A
5:00 PM66 °FMild.2 mph47%30.04 "HgN/A
4:00 PM62 °FCool.9 mph64%30.05 "HgN/A
3:00 PM62 °FOvercast.12 mph52%30.06 "Hg12 mi
2:00 PM62 °FRefreshingly cool.5 mph46%30.09 "HgN/A
Weather by CustomWeather, © 2015

See weather overviewHow to use our weather pages